Location: Isle of Man Observatory
(54.1776°N, 4.6264°W)
Time: 07:29:55
(UTC+02:00)

Envisat - Pass Details

Date: 24 May 2026
Orbit: 761 x 763 km, 98.4° (Epoch: 11 June)

Event Time Altitude Azimuth Distance (km) Brightness Sun altitude
Rises 05:06:30 0° 16° (NNE) 3,238 7.6 -6.6°
Reaches altitude 10° 05:08:50 10° 17° (NNE) 2,307 6.8 -6.3°
Maximum altitude 05:13:55 79° 105° (ESE) 782 3.2 -5.9°
Drops below altitude 10° 05:18:59 10° 192° (SSW) 2,290 4.9 -5.4°
Enters shadow 05:20:45 - 194° (SSW) 2,998 5.5 -5.2°
